TimePST,TemperatureF,Dew PointF,Humidity,Sea Level PressureIn,VisibilityMPH,Wind Direction,Wind SpeedMPH,Gust SpeedMPH,PrecipitationIn,Events,Conditions,WindDirDegrees,DateUTC
12:56 AM,39.9,32.0,73,30.27,10.0,ENE,5.8,-,N/A,,Clear,70,2013-02-16 08:56:00
1:56 AM,37.0,32.0,82,30.25,10.0,Calm,Calm,-,N/A,,Clear,0,2013-02-16 09:56:00
2:56 AM,35.6,32.0,87,30.22,10.0,Calm,Calm,-,N/A,,Clear,0,2013-02-16 10:56:00
3:56 AM,39.9,32.0,73,30.21,10.0,Calm,Calm,-,N/A,,Clear,0,2013-02-16 11:56:00
4:56 AM,39.9,32.0,73,30.19,10.0,Calm,Calm,-,N/A,,Clear,0,2013-02-16 12:56:00
5:56 AM,37.0,30.9,79,30.19,10.0,Calm,Calm,-,N/A,,Mostly Cloudy,0,2013-02-16 13:56:00
6:56 AM,37.0,30.9,79,30.18,10.0,ENE,6.9,-,N/A,,Scattered Clouds,60,2013-02-16 14:56:00
7:56 AM,41.0,32.0,70,30.17,10.0,Variable,5.8,-,N/A,,Clear,0,2013-02-16 15:56:00
8:56 AM,44.1,34.0,68,30.16,10.0,NNW,3.5,-,N/A,,Clear,330,2013-02-16 16:56:00
9:56 AM,48.9,35.1,59,30.14,10.0,Variable,3.5,-,N/A,,Clear,0,2013-02-16 17:56:00
10:56 AM,54.0,36.0,51,30.10,10.0,NNE,3.5,-,N/A,,Clear,20,2013-02-16 18:56:00
11:56 AM,57.9,37.0,46,30.06,10.0,NNE,5.8,-,N/A,,Clear,20,2013-02-16 19:56:00
12:56 PM,57.0,37.0,47,30.03,10.0,NNW,5.8,-,N/A,,Clear,340,2013-02-16 20:56:00
1:56 PM,59.0,36.0,42,30.00,10.0,NNW,6.9,-,N/A,,Mostly Cloudy,330,2013-02-16 21:56:00
2:56 PM,55.9,37.0,49,29.99,10.0,NW,10.4,-,N/A,,Overcast,320,2013-02-16 22:56:00
3:56 PM,52.0,37.9,59,29.98,10.0,NW,17.3,25.3,0.00,,Overcast,310,2013-02-16 23:56:00
4:56 PM,52.0,34.0,50,29.99,10.0,West,9.2,-,N/A,,Overcast,270,2013-02-17 00:56:00
5:56 PM,50.0,30.0,46,29.99,10.0,SSW,6.9,-,N/A,,Overcast,210,2013-02-17 01:56:00
6:56 PM,48.9,33.1,54,29.99,10.0,West,6.9,-,N/A,,Overcast,260,2013-02-17 02:56:00
7:56 PM,48.0,30.9,52,29.99,10.0,WSW,16.1,23.0,0.00,,Mostly Cloudy,250,2013-02-17 03:56:00
8:56 PM,48.0,30.0,50,30.01,10.0,West,15.0,-,N/A,,Overcast,270,2013-02-17 04:56:00
9:56 PM,44.6,30.2,57,29.99,10.0,West,11.5,-,N/A,,Partly Cloudy,270,2013-02-17 05:56:00
10:56 PM,43.0,28.0,56,30.01,10.0,West,10.4,-,N/A,,Scattered Clouds,270,2013-02-17 06:56:00
11:56 PM,44.1,28.0,53,30.02,10.0,WSW,8.1,-,N/A,,Overcast,250,2013-02-17 07:56:00